New Philadelphia, OH

12:32 PM EST on February 07, 2016 (GMT -0500)
Clever

Weather History for KPHD - August, 2013

Change the Weather History Date:

Friday, August 9, 2013

  Actual Average Record
Temperature  
Mean Temperature 71 °F 72 °F  
Max Temperature 80 °F 83 °F 97 °F (2001)
Min Temperature 62 °F 61 °F 45 °F (1989)
Degree Days  
Heating Degree Days 0 0  
Month to date heating degree days 1 0  
Since 1 June heating degree days 27 38  
Since 1 July heating degree days 5 3  
Cooling Degree Days 6 7  
Month to date cooling degree days 39 65  
Year to date cooling degree days 519 485  
Since 1 June cooling degree days 421 442  
Growing Degree Days 22 (Base 50)    
Moisture  
Dew Point 67 °F    
Average Humidity 77    
Maximum Humidity 97    
Minimum Humidity 56    
Precipitation  
Precipitation 0.16 in 0.11 in 1.24 in (2003)
Month to date precipitation 0.95 0.88  
Year to date precipitation 23.11 24.24  
Sea Level Pressure  
Sea Level Pressure 29.95 in    
Wind  
Wind Speed 3 mph (NW)    
Max Wind Speed 10 mph    
Max Gust Speed 13 mph    
Visibility 4 miles    
Events Rain , Thunderstorm    
T = Trace of Precipitation, MM = Missing Value Source: NWS Daily Summary

Daily Weather History Graph

Daily Weather History Graph

Search for Another Location

Airport or City:

Trip Planner

Search our weather history database for the weather conditions in past years. The results will help you decide how hot, cold, wet, or windy it might be!

Date:

Astronomy

Aug. 09, 2013 Rise Set
Actual Time 6:30 AM EDT 8:30 PM EDT
Civil Twilight 6:01 AM EDT 9:00 PM EDT
Nautical Twilight 5:24 AM EDT 9:36 PM EDT
Astronomical Twilight 4:45 AM EDT 10:15 PM EDT
Moon 9:16 AM EDT (8/9) 9:38 PM EDT (8/9)
Length of Visible Light 14h 59m
Length of Day
13h 59m
Waxing Crescent, 7% of the Moon is Illuminated
Aug 9
Waxing Crescent
Aug 14
First Quarter
Aug 20
Full
Aug 28
Last Quarter
Sep 5
New

Hourly Weather History & Observations

Time (EDT) Temp. Dew Point Humidity Pressure Visibility Wind Dir Wind Speed Gust Speed Precip Events Conditions
12:41 AM 71.6 °F 68.0 °F 88% 29.94 in 1.8 mi Calm Calm - N/A   Partly Cloudy
12:46 AM 71.6 °F 68.0 °F 88% 29.94 in 0.8 mi Calm Calm - N/A   Mist
12:53 AM 71.1 °F 68.0 °F 90% 29.92 in 1.0 mi Calm Calm - N/A   Partly Cloudy
1:00 AM 71.6 °F 69.8 °F 94% 29.94 in 0.8 mi Calm Calm - N/A   Mist
1:10 AM 71.6 °F 68.0 °F 88% 29.93 in 1.2 mi Calm Calm - N/A   Scattered Clouds
1:13 AM 69.8 °F 66.2 °F 88% 29.93 in 4.0 mi Calm Calm - N/A   Scattered Clouds
1:23 AM 69.8 °F 66.2 °F 88% 29.93 in 1.8 mi Calm Calm - N/A   Scattered Clouds
1:29 AM 69.8 °F 66.2 °F 88% 29.93 in 1.0 mi Calm Calm - N/A   Mist
1:31 AM 69.8 °F 66.2 °F 88% 29.93 in 0.8 mi Calm Calm - N/A   Mist
1:53 AM 70.0 °F 68.0 °F 93% 29.91 in 0.8 mi Calm Calm - N/A   Overcast
1:57 AM 71.6 °F 68.0 °F 88% 29.93 in 1.2 mi Calm Calm - N/A   Overcast
2:16 AM 71.6 °F 68.0 °F 88% 29.93 in 1.5 mi Calm Calm - N/A   Overcast
2:26 AM 71.6 °F 69.8 °F 94% 29.93 in 2.5 mi Calm Calm - N/A   Overcast
2:37 AM 71.6 °F 69.8 °F 94% 29.93 in 3.0 mi Calm Calm - 0.00 in Rain Light Rain
2:53 AM 72.0 °F 69.1 °F 91% 29.91 in 5.0 mi Calm Calm - 0.00 in   Overcast
3:18 AM 73.4 °F 69.8 °F 88% 29.93 in 5.0 mi Calm Calm - N/A Thunderstorm Overcast
3:53 AM 72.0 °F 69.1 °F 91% 29.91 in 5.0 mi Calm Calm - N/A   Overcast
4:53 AM 73.0 °F 69.1 °F 87% 29.90 in 4.0 mi Calm Calm - 0.00 in Rain Light Rain
5:53 AM 73.0 °F 70.0 °F 90% 29.90 in 3.0 mi Calm Calm - 0.04 in Rain Light Rain
6:05 AM 73.4 °F 69.8 °F 88% 29.92 in 4.0 mi WNW 3.5 mph - 0.01 in Rain Light Rain
6:53 AM 72.0 °F 69.1 °F 91% 29.91 in 4.0 mi NW 3.5 mph - 0.01 in Rain Light Rain
7:17 AM 71.6 °F 69.8 °F 94% 29.92 in 2.5 mi Calm Calm - 0.00 in   Overcast
7:31 AM 71.6 °F 69.8 °F 94% 29.92 in 3.0 mi Calm Calm - 0.00 in   Overcast
7:44 AM 71.6 °F 69.8 °F 94% 29.93 in 2.5 mi Calm Calm - 0.00 in   Overcast
7:53 AM 72.0 °F 69.1 °F 91% 29.92 in 3.0 mi WNW 5.8 mph - 0.00 in   Overcast
8:01 AM 71.6 °F 68.0 °F 88% 29.94 in 2.5 mi NW 8.1 mph - N/A   Overcast
8:33 AM 69.8 °F 66.2 °F 88% 29.95 in 1.8 mi NW 6.9 mph - N/A   Overcast
8:53 AM 70.0 °F 66.9 °F 90% 29.94 in 1.8 mi NW 4.6 mph - N/A   Overcast
9:07 AM 69.8 °F 66.2 °F 88% 29.95 in 2.5 mi NNW 3.5 mph - 0.00 in Rain Light Rain
9:15 AM 69.8 °F 66.2 °F 88% 29.95 in 3.0 mi NNW 6.9 mph - 0.00 in Rain Light Rain
9:31 AM 69.8 °F 66.2 °F 88% 29.95 in 2.5 mi NW 6.9 mph - 0.00 in   Overcast
9:53 AM 70.0 °F 66.0 °F 87% 29.94 in 2.5 mi NW 6.9 mph - 0.00 in   Overcast
10:02 AM 69.8 °F 66.2 °F 88% 29.96 in 3.0 mi NW 5.8 mph - N/A   Overcast
10:26 AM 69.8 °F 66.2 °F 88% 29.97 in 2.5 mi NW 4.6 mph - N/A   Overcast
10:38 AM 69.8 °F 66.2 °F 88% 29.97 in 3.0 mi NW 5.8 mph - N/A   Overcast
10:45 AM 69.8 °F 64.4 °F 83% 29.97 in 2.0 mi NW 8.1 mph - N/A   Overcast
10:53 AM 69.1 °F 64.9 °F 87% 29.96 in 3.0 mi NW 5.8 mph - N/A   Overcast
11:07 AM 69.8 °F 66.2 °F 88% 29.98 in 2.5 mi NW 5.8 mph - 0.00 in Rain Light Rain
11:18 AM 69.8 °F 66.2 °F 88% 29.97 in 4.0 mi NNW 5.8 mph - 0.00 in   Overcast
11:53 AM 70.0 °F 64.9 °F 84% 29.97 in 5.0 mi Calm Calm - 0.00 in Rain Light Rain
12:24 PM 69.8 °F 66.2 °F 88% 29.99 in 2.5 mi NW 3.5 mph - 0.03 in Rain Light Rain
12:36 PM 71.6 °F 66.2 °F 83% 29.99 in 1.5 mi Calm Calm - 0.06 in Rain Rain
12:49 PM 71.6 °F 66.2 °F 83% 29.99 in 2.0 mi WNW 3.5 mph - 0.09 in Rain Rain
12:53 PM 71.1 °F 66.9 °F 87% 29.97 in 2.5 mi WNW 5.8 mph - 0.10 in Rain Light Rain
1:00 PM 71.6 °F 66.2 °F 83% 29.99 in 3.0 mi NW 4.6 mph - 0.00 in Rain Light Rain
1:53 PM 73.0 °F 66.9 °F 81% 29.96 in 7.0 mi WNW 3.5 mph - 0.01 in   Overcast
2:49 PM 77.0 °F 68.0 °F 74% 29.97 in 9.0 mi North 5.8 mph - N/A   Mostly Cloudy
2:53 PM 75.9 °F 66.9 °F 74% 29.96 in 10.0 mi NW 5.8 mph - N/A   Scattered Clouds
3:42 PM 78.8 °F 66.2 °F 65% 29.98 in 10.0 mi WNW 4.6 mph - N/A   Mostly Cloudy
3:53 PM 79.0 °F 68.0 °F 69% 29.96 in 10.0 mi West 3.5 mph - N/A   Mostly Cloudy
4:28 PM 78.8 °F 66.2 °F 65% 29.97 in 10.0 mi NNW 5.8 mph - N/A   Scattered Clouds
4:53 PM 79.0 °F 64.0 °F 60% 29.96 in 10.0 mi WNW 6.9 mph - N/A   Clear
5:53 PM 79.0 °F 63.0 °F 58% 29.96 in 10.0 mi WNW 4.6 mph - N/A   Clear
6:53 PM 77.0 °F 61.0 °F 58% 29.96 in 10.0 mi WNW 8.1 mph - N/A   Clear
7:53 PM 73.9 °F 60.1 °F 62% 29.98 in 10.0 mi North 5.8 mph - N/A   Clear
8:53 PM 66.9 °F 61.0 °F 81% 30.00 in 10.0 mi Calm Calm - N/A   Clear
9:53 PM 64.9 °F 61.0 °F 87% 30.03 in 10.0 mi Calm Calm - N/A   Clear
10:53 PM 64.0 °F 61.0 °F 90% 30.03 in 10.0 mi Calm Calm - N/A   Clear
11:53 PM 63.0 °F 61.0 °F 93% 30.05 in 8.0 mi Calm Calm - N/A   Clear